CALDNA-WX Weather Reports


Display with metric or nautical units.
time (UTC)temp
F
wind
direction
speed
MPH
gust
MPH
rain 1hr
in
rain 24hr
in
rain mn
in
humidity
%
barometer
mb
20260503031521 38 211 6.0 0.0 0.00 0.00 0.00 66 988.3
20260503030047 38 217 5.0 0.0 0.00 0.00 0.00 66 988.3
20260503024521 39 218 5.0 0.0 0.00 0.00 0.00 59 989.2
20260503023040 39 227 5.0 0.0 0.00 0.00 0.00 63 988.7
20260503021521 39 233 7.0 0.0 0.00 0.00 0.00 63 988.7
20260503020047 40 235 7.0 0.0 0.00 0.00 0.00 63 988.7
20260503014521 40 239 7.0 0.0 0.00 0.00 0.00 52 988.2
20260503013039 41 241 7.0 0.0 0.00 0.00 0.00 52 988.2
20260503011521 41 237 6.0 0.0 0.00 0.00 0.00 52 988.2
20260503010045 42 242 6.0 0.0 0.00 0.00 0.00 52 988.2
20260503004521 43 245 6.0 0.0 0.00 0.00 0.00 41 989.0
20260503003035 44 244 5.0 0.0 0.00 0.00 0.00 41 989.2
20260503001521 45 250 5.0 0.0 0.00 0.00 0.00 41 989.2
20260503000045 46 263 5.0 0.0 0.00 0.00 0.00 41 989.2
20260502234522 47 277 7.0 0.0 0.00 0.00 0.00 36 989.0
20260502233034 47 276 8.0 0.0 0.00 0.00 0.00 35 989.1
20260502231522 47 274 9.0 0.0 0.00 0.00 0.00 35 989.1
20260502230047 48 275 10.0 0.0 0.00 0.00 0.00 35 989.1
20260502224521 48 277 11.0 0.0 0.00 0.00 0.00 36 989.4
20260502223040 48 276 11.0 0.0 0.00 0.00 0.00 35 990.2
20260502221522 48 276 12.0 0.0 0.00 0.00 0.00 35 990.2
20260502220045 48 275 13.0 0.0 0.00 0.00 0.00 35 990.2
20260502214522 48 276 13.0 0.0 0.00 0.00 0.00 36 990.2
20260502213040 48 276 11.0 0.0 0.00 0.00 0.00 38 989.9
20260502211522 48 273 11.0 0.0 0.00 0.00 0.00 38 989.9
20260502210048 48 272 11.0 0.0 0.00 0.00 0.00 38 989.9
20260502204521 48 271 12.0 0.0 0.00 0.00 0.00 34 990.3
20260502203039 49 272 11.0 0.0 0.00 0.00 0.00 34 990.8
20260502201521 48 274 11.0 0.0 0.00 0.00 0.00 34 990.8
20260502200046 48 274 12.0 0.0 0.00 0.00 0.00 34 990.8
20260502194521 48 276 12.0 0.0 0.00 0.00 0.00 33 991.0
20260502193035 48 277 12.0 0.0 0.00 0.00 0.00 33 991.0
20260502191522 48 280 13.0 0.0 0.00 0.00 0.00 33 991.1
20260502190046 48 279 12.0 0.0 0.00 0.00 0.00 33 991.1
20260502184521 48 279 12.0 0.0 0.00 0.00 0.00 43 991.0
20260502183041 48 285 11.0 0.0 0.00 0.00 0.00 42 991.0
20260502181521 46 286 11.0 0.0 0.00 0.00 0.00 42 991.0
20260502163041 46 286 9.0 0.0 0.00 0.00 0.00 40 990.5
20260502161522 45 287 8.0 0.0 0.00 0.00 0.00 40 990.5
20260502151522 43 293 7.0 0.0 0.00 0.00 0.00 50 990.6
20260502123039 35 324 4.0 0.0 0.00 0.00 0.00 80 991.2
20260502121521 34 328 5.0 0.0 0.00 0.00 0.00 80 991.2
20260502114521 32 315 4.0 0.0 0.00 0.00 0.00 83 991.1
20260502113043 32 312 2.0 0.0 0.00 0.00 0.00 86 990.9
20260502111521 31 312 2.0 0.0 0.00 0.00 0.00 86 990.9
20260502110048 31 307 3.0 0.0 0.00 0.00 0.00 86 990.9
20260502104521 31 298 3.0 0.0 0.00 0.00 0.00 84 990.7
20260502103040 31 295 3.0 0.0 0.00 0.00 0.00 87 990.9
20260502101521 31 295 3.0 0.0 0.00 0.00 0.00 87 990.9
20260502091521 31 298 3.0 0.0 0.00 0.00 0.00 86 990.4
20260502071521 31 299 4.0 0.0 0.00 0.00 0.00 77 989.6
20260502070045 31 305 4.0 0.0 0.00 0.00 0.00 77 989.6
20260502064521 32 304 4.0 0.0 0.00 0.00 0.00 73 990.8
20260502063041 32 289 4.0 0.0 0.00 0.00 0.00 74 990.7
20260502061521 32 286 4.0 0.0 0.00 0.00 0.00 74 990.7
20260502060053 32 288 4.0 0.0 0.00 0.00 0.00 74 990.7
20260502054522 33 292 4.0 0.0 0.00 0.00 0.00 75 990.0
20260502053040 33 291 5.0 0.0 0.00 0.00 0.00 76 990.4
20260502051521 33 295 5.0 0.0 0.00 0.00 0.00 76 990.3
20260502050048 33 304 5.0 0.0 0.00 0.00 0.00 76 990.3
20260502044522 33 313 5.0 0.0 0.00 0.00 0.00 71 989.8
20260502043039 34 324 5.0 0.0 0.00 0.00 0.00 74 990.0
20260502041521 34 326 5.0 0.0 0.00 0.00 0.00 74 990.0
20260502040047 34 322 6.0 0.0 0.00 0.00 0.00 74 990.0
20260502034521 34 317 7.0 0.0 0.00 0.00 0.00 66 989.6
20260502033041 35 329 5.0 0.0 0.00 0.00 0.00 69 989.0